Погода в Вологде

Погода в Вологде : погода сейчас, прогноз погоды и архив. Всё, что Вы хотите узнать о погоде в Вологде!

Хотите узнать прогноз погоды в Вологде? Тогда Вам сюда: Погода в Вологде

Поиск расширенной информации на нашем сайте:

Другие новости

Новости СМИ2

Главная страница сайта

Новости сайта

03.07.2017

Напоминаем, что на нашем специализированном сайте Метеоцентр.Азия вы можете получить высокодетализированные автоматические прогнозы погоды по пунктам России, СНГ и мира в авиационном формате (включающие направление и скорость ветра, видимость, явления погоды, количество и форму облачности, нижнюю и верхнюю границу облачности).


Погода в Вологде - сегодня

Время (UTC), дата Ветер
(°,м/с) 
Видим.   Явления Облачность Т
(°С)
Тd
(°С)
f(%) Тe
(°С)
Pmin
(гПа)
dP
(гПа)
Po
(мм)
O2
(г/м3)
Тmin Tmax R s Состояние
почвы
03 17.08.18 тихо ()   20000 м  туман поземный  ясно 
+7.3 +6.4 94 +7  1025.2  1.3  757  296  +5.3        влажная 
06 17.08.18 тихо ()   20000 м    8/8 2000 м средняя 
[Ac trans]
+16.1 +12 77 +20    0.7  757  286           
09 17.08.18 310 (СЗ) 20000 м    8/4 600 м средняя 
[Sc|Ac trans]
+18.3 +8.2 52 +20  1025.1  -0.2  757  285           
12 17.08.18 330 (СЗ) 20000 м    6/4 600 м верхняя 
[Sc|Ci fib]
+20.4 +5.2 37 +20  1024.7  -0.3  757  283           
18 17.08.18 тихо ()   20000 м    4/0 верхняя 
[Ci fib]
+12 +11.1 94 +14  1024.3  -0.3  756  290           
21 17.08.18 тихо ()   20000 м    4/0 верхняя 
[Ci fib]
+8.5 +7.6 94 +9  1024.9  0.4  757  294           
00 18.08.18 тихо ()   20000 м    1/0 верхняя 
[Ci fib]
+7 +6.1 94 +7  1025.6  0.6  757  296           
03 18.08.18 160 (Ю) 20000 м  {туман}  1/0 верхняя 
[Ci fib]
+7.8 +6.9 94 +9  1025.8  0.2  757  296  +6.2        сухая 
06 18.08.18 240 (ЮЗ) 20000 м  {туман}  ясно 
+17.1 +12.5 74 +22  1025  -0.2  757  285           
09 18.08.18 230 (ЮЗ) 20000 м    6/6 1000 м 
[Cu hum]
+21.7 +9.6 46 +22  1024.2  -0.6  757  281           
12 18.08.18 190 (Ю) 20000 м    6/6 1000 м 
[Cu hum]
+22.4 +10.1 46 +24  1023.1  -1  756  280           
18 18.08.18 тихо ()   20000 м    ясно 
+12.4 +10.8 90 +14  1022.4  -0.2  755  289           
21 18.08.18 140 (ЮВ) 4000 м  дымка  ясно 
+11 +9.9 93 +12  1022.5  755  291           
03 19.08.18 180 (Ю) 20000 м    10/10 720 м 
[Sc]
+14 +11.2 83 +18  1020.8  -1  754  287  +9.1        сухая 
06 19.08.18 190 (Ю) 20000 м    9/9 930 м 
[Sc]
+17.7 +11.6 67 +22  1019.4  -1.2  753  283           
09 19.08.18 210 (ЮЗ) 20000 м    3/1 600 м верхняя 
[Sc|Ci fib]
+21.8 +11.6 52 +25  1017.7  -1.5  752  278           
12 19.08.18 220 (ЮЗ) 4{10}  20000 м    8/8 600 м 
[Cu Sc]
+22.9 +11.2 48 +26  1015.9  -1.7  751  277           
18 19.08.18 190 (Ю) 20000 м  {ливн. осадки}  8/6 600 м кучево-дожд., средняя 
[Cb cap|Ac trans]
+19.4 +12.1 63 +24  1012  -1.8  748  279           
00 20.08.18 230 (ЮЗ) 20000 м  {ливн. осадки}  9/9 600 м кучево-дожд. 
[Cb cap]
+17.2 +15.4 89 +28  1010.7  747  280           
03 20.08.18 280 (З) 20000 м    9/9 800 м верхняя 
[Sc diur, vesp|Ci fib]
+16.4 +13.9 85 +24  1011.4  0.7  747  281  +16.1    0.1    сухая 
06 20.08.18 250 (З) 20000 м    8/6 600 м кучево-дожд., средняя, верхняя 
[Cb cap|Ac trans|Ci fib]
+17.8 +12.2 70 +23  1011.4  747  280           
09 20.08.18 260 (З) 20000 м    10/8 600 м кучево-дожд., средняя, верхняя 
[Cb cap|Ac trans|Ci fib]
+20.3 +11 55 +23  1011.1  -0.1  747  278           
12 20.08.18 250 (З) 20000 м    10/8 600 м кучево-дожд., средняя, верхняя 
[Cb cap|Ac trans|Ci fib]
+19.6 +10.4 55 +23  1011  -0.2  747  279           
18 20.08.18 180 (Ю) 20000 м    10/8 870 м средняя, верхняя 
[Sc|Ac trans|Ci fib]
+16.6 +12.9 79 +23  1009.5  -0.9  746  281           
21 20.08.18 160 (Ю) 10 км  слаб. дождь  10/10 450 м 
[Sc]
+16.1 +14.8 92 +26  1007.9  -1.6  744  280           
Время (UTC), дата Ветер
(°,м/с) 
Видим.   Явления Облачность Т
(°С)
Тd
(°С)
f(%) Тe
(°С)
Pmin
(гПа)
dP
(гПа)
Po
(мм)
O2
(г/м3)
Тmin Tmax R s Состояние
почвы

Для получения пояснительной информации подведите курсор к названию столбца.

ПОГОДА в Вологде - архив

Всё, что Вы хотите узнать о погоде в Вологде - удобно и подробно!

Выберите нужную дату (начиная с 1 января 2015* года) и нажмите кнопку "Найти".
Будут отображены архивные сводки погоды по пункту Вологда, начиная с указанной даты.


Отображать данные в формате CSV (для использования в таблицах Excel)


Внимание! Наш архив погоды предназначен исключительно для личного некоммерческого использования в познавательных целях. Если Вам необходимы официальные справки о состоянии погоды (для производственных, юридических, коммерческих и т.п. целей), обращайтесь в органы Росгидромета.

*Примечание: данная дата относится к архиву по метеостанциям СССР (Россия, СНГ, Балтия).
Архив по метеостанциям Зарубежной Европы и Азии (кроме Китая) хранится 10 дней, по другим регионам земного шара (Китай, Африка, Америка, Австралия, Океания) - 1 день.

Вологда - район местоположения метеостанции


Название, широта, долгота, высота метеостанции:
Вологда (город) 59.3°ш. 39.9°д. 130 м над ур. моря [Российская Федерация]

Дополнительная информация

В oтличие oт бoльшинства пoгoдных сайтoв мы публикуем пoдрoбную метеoинфoрмацию в детальнoм прoфессиoнальнoм фoрмате.

Характеристики температуры и влажнoсти вoздуха измеряются на высoте 2 м в тени вдали oт зданий и деревьев.
Скoрoсть ветра измеряется на высoте 10 м (на урoвне рoста челoвека скoрoсть ветра ниже в 1.5-2 раза). Если метеoстанция нахoдится в гoрoде или в лесу, тo скoрoсть ветра занижена на 2-4 м/с пo сравнению с oткрытым местoм. Скoрoсть ветра над акватoриями крупных рек и oзёр, а также на вершинах хoлмoв на 2-5 м/с выше, чем в oбычных услoвиях.
Атмoсфернoе давление в разных тoчках местнoсти мoжет значительнo oтличаться oт давления на метеoстанции, в зависимoсти oт услoвий рельефа (при пoдъёме на 10 м давление пoнижается примернo на 1 мм рт.ст.).